Year,Month,Day,Hour,Minute,Value (Times are PST for temperature in C)
2016,06,20,00,00,12.90
2016,06,20,00,01,12.90
2016,06,20,00,02,12.80
2016,06,20,00,03,12.80
2016,06,20,00,04,12.80
2016,06,20,00,05,12.80
2016,06,20,00,06,12.80
2016,06,20,00,07,12.80
2016,06,20,00,08,12.80
2016,06,20,00,09,12.70
2016,06,20,00,10,12.70
2016,06,20,00,11,12.70
2016,06,20,00,12,12.70
2016,06,20,00,13,12.70
2016,06,20,00,14,12.70
2016,06,20,00,15,12.70
2016,06,20,00,16,12.70
2016,06,20,00,17,12.70
2016,06,20,00,18,12.70
2016,06,20,00,19,12.70
2016,06,20,00,20,12.70
2016,06,20,00,21,12.70
2016,06,20,00,22,12.70
2016,06,20,00,23,12.70
2016,06,20,00,24,12.70
2016,06,20,00,25,12.60
2016,06,20,00,26,12.60
2016,06,20,00,27,12.60
2016,06,20,00,28,12.60
2016,06,20,00,29,12.60
2016,06,20,00,30,12.50
2016,06,20,00,31,12.50
2016,06,20,00,32,12.50
2016,06,20,00,33,12.40
2016,06,20,00,34,12.40
2016,06,20,00,35,12.40
2016,06,20,00,36,12.40
2016,06,20,00,37,12.40
2016,06,20,00,38,12.30
2016,06,20,00,39,12.30
2016,06,20,00,40,12.30
2016,06,20,00,41,12.30
2016,06,20,00,42,12.30
2016,06,20,00,43,12.30
2016,06,20,00,44,12.20
2016,06,20,00,45,12.20
2016,06,20,00,46,12.20
2016,06,20,00,47,12.20
2016,06,20,00,48,12.20
2016,06,20,00,49,12.20
2016,06,20,00,50,12.10
2016,06,20,00,51,12.10
2016,06,20,00,52,12.10
2016,06,20,00,53,12.10
2016,06,20,00,54,12.10
2016,06,20,00,55,12.10
2016,06,20,00,56,12.10
2016,06,20,00,57,12.10
2016,06,20,00,58,12.20
2016,06,20,00,59,12.20
2016,06,20,01,00,12.20
2016,06,20,01,01,12.20
2016,06,20,01,02,12.20
2016,06,20,01,03,12.20
2016,06,20,01,04,12.20
2016,06,20,01,05,12.20
2016,06,20,01,06,12.20
2016,06,20,01,07,12.20
2016,06,20,01,08,12.10
2016,06,20,01,09,12.10
2016,06,20,01,10,12.10
2016,06,20,01,11,12.10
2016,06,20,01,12,12.00
2016,06,20,01,13,12.00
2016,06,20,01,14,11.90
2016,06,20,01,15,11.90
2016,06,20,01,16,11.90
2016,06,20,01,17,11.90
2016,06,20,01,18,11.90
2016,06,20,01,19,11.90
2016,06,20,01,20,11.90
2016,06,20,01,21,11.90
2016,06,20,01,22,11.90
2016,06,20,01,23,11.90
2016,06,20,01,24,11.80
2016,06,20,01,25,11.80
2016,06,20,01,26,11.80
2016,06,20,01,27,11.80
2016,06,20,01,28,11.80
2016,06,20,01,29,11.80
2016,06,20,01,30,11.80
2016,06,20,01,31,11.80
2016,06,20,01,32,11.70
2016,06,20,01,33,11.80
2016,06,20,01,34,11.80
2016,06,20,01,35,11.80
2016,06,20,01,36,11.80
2016,06,20,01,37,11.80
2016,06,20,01,38,11.80
2016,06,20,01,39,11.80
2016,06,20,01,40,11.80
2016,06,20,01,41,11.80
2016,06,20,01,42,11.80
2016,06,20,01,43,11.80
2016,06,20,01,44,11.80
2016,06,20,01,45,11.80
2016,06,20,01,46,11.80
2016,06,20,01,47,11.80
2016,06,20,01,48,11.80
2016,06,20,01,49,11.80
2016,06,20,01,50,11.80
2016,06,20,01,51,11.80
2016,06,20,01,52,11.90
2016,06,20,01,53,11.90
2016,06,20,01,54,11.90
2016,06,20,01,55,11.90
2016,06,20,01,56,11.90
2016,06,20,01,57,11.90
2016,06,20,01,58,11.90
2016,06,20,01,59,11.90
2016,06,20,02,00,11.90
2016,06,20,02,01,11.90
2016,06,20,02,02,11.90
2016,06,20,02,03,11.90
2016,06,20,02,04,11.90
2016,06,20,02,05,11.90
2016,06,20,02,06,11.90
2016,06,20,02,07,11.90
2016,06,20,02,08,11.90
2016,06,20,02,09,11.90
2016,06,20,02,10,11.90
2016,06,20,02,11,12.00
2016,06,20,02,12,12.00
2016,06,20,02,13,12.00
2016,06,20,02,14,11.90
2016,06,20,02,15,11.90
2016,06,20,02,16,11.90
2016,06,20,02,17,11.90
2016,06,20,02,18,11.90
2016,06,20,02,19,12.00
2016,06,20,02,20,12.00
2016,06,20,02,21,12.00
2016,06,20,02,22,12.10
2016,06,20,02,23,12.10
2016,06,20,02,24,12.10
2016,06,20,02,25,12.10
2016,06,20,02,26,12.10
2016,06,20,02,27,12.10
2016,06,20,02,28,12.10
2016,06,20,02,29,12.10
2016,06,20,02,30,12.10
2016,06,20,02,31,12.10
2016,06,20,02,32,12.20
2016,06,20,02,33,12.10
2016,06,20,02,34,12.20
2016,06,20,02,35,12.20
2016,06,20,02,36,12.20
2016,06,20,02,37,12.20
2016,06,20,02,38,12.20
2016,06,20,02,39,12.10
2016,06,20,02,40,12.20
2016,06,20,02,41,12.20
2016,06,20,02,42,12.20
2016,06,20,02,43,12.20
2016,06,20,02,44,12.10
2016,06,20,02,45,12.10
2016,06,20,02,46,12.10
2016,06,20,02,47,12.10
2016,06,20,02,48,12.10
2016,06,20,02,49,12.10
2016,06,20,02,50,12.10
2016,06,20,02,51,12.10
2016,06,20,02,52,12.10
2016,06,20,02,53,12.10
2016,06,20,02,54,12.00
2016,06,20,02,55,12.00
2016,06,20,02,56,12.00
2016,06,20,02,57,12.00
2016,06,20,02,58,12.00
2016,06,20,02,59,11.90
2016,06,20,03,00,11.90
2016,06,20,03,01,11.90
2016,06,20,03,02,11.90
2016,06,20,03,03,11.90
2016,06,20,03,04,11.90
2016,06,20,03,05,11.90
2016,06,20,03,06,11.90
2016,06,20,03,07,11.90
2016,06,20,03,08,11.90
2016,06,20,03,09,11.90
2016,06,20,03,10,11.90
2016,06,20,03,11,11.90
2016,06,20,03,12,11.90
2016,06,20,03,13,11.90
2016,06,20,03,14,11.90
2016,06,20,03,15,11.90
2016,06,20,03,16,11.90
2016,06,20,03,17,11.90
2016,06,20,03,18,11.90
2016,06,20,03,19,11.80
2016,06,20,03,20,11.80
2016,06,20,03,21,11.80
2016,06,20,03,22,11.80
2016,06,20,03,23,11.80
2016,06,20,03,24,11.80
2016,06,20,03,25,11.80
2016,06,20,03,26,11.80
2016,06,20,03,27,11.80
2016,06,20,03,28,11.80
2016,06,20,03,29,11.90
2016,06,20,03,30,11.90
2016,06,20,03,31,11.90
2016,06,20,03,32,11.90
2016,06,20,03,33,11.90
2016,06,20,03,34,11.90
2016,06,20,03,35,11.90
2016,06,20,03,36,11.90
2016,06,20,03,37,11.80
2016,06,20,03,38,11.80
2016,06,20,03,39,11.80
2016,06,20,03,40,11.80
2016,06,20,03,41,11.80
2016,06,20,03,42,11.80
2016,06,20,03,43,11.80
2016,06,20,03,44,11.80
2016,06,20,03,45,11.80
2016,06,20,03,46,11.80
2016,06,20,03,47,11.80
2016,06,20,03,48,11.80
2016,06,20,03,49,11.80
2016,06,20,03,50,11.80
2016,06,20,03,51,11.80
2016,06,20,03,52,11.80
2016,06,20,03,53,11.80
2016,06,20,03,54,11.80
2016,06,20,03,55,11.80
2016,06,20,03,56,11.80
2016,06,20,03,57,11.80
2016,06,20,03,58,11.70
2016,06,20,03,59,11.70
2016,06,20,04,00,11.70
2016,06,20,04,01,11.70
2016,06,20,04,02,11.70
2016,06,20,04,03,11.70
2016,06,20,04,04,11.70
2016,06,20,04,05,11.70
2016,06,20,04,06,11.70
2016,06,20,04,07,11.70
2016,06,20,04,08,11.70
2016,06,20,04,09,11.60
2016,06,20,04,10,11.60
2016,06,20,04,11,11.60
2016,06,20,04,12,11.60
2016,06,20,04,13,11.60
2016,06,20,04,14,11.60
2016,06,20,04,15,11.60
2016,06,20,04,16,11.60
2016,06,20,04,17,11.60
2016,06,20,04,18,11.60
2016,06,20,04,19,11.60
2016,06,20,04,20,11.60
2016,06,20,04,21,11.60
2016,06,20,04,22,11.60
2016,06,20,04,23,11.60
2016,06,20,04,24,11.50
2016,06,20,04,25,11.50
2016,06,20,04,26,11.50
2016,06,20,04,27,11.50
2016,06,20,04,28,11.50
2016,06,20,04,29,11.50
2016,06,20,04,30,11.40
2016,06,20,04,31,11.40
2016,06,20,04,32,11.50
2016,06,20,04,33,11.50
2016,06,20,04,34,11.50
2016,06,20,04,35,11.50
2016,06,20,04,36,11.40
2016,06,20,04,37,11.40
2016,06,20,04,38,11.40
2016,06,20,04,39,11.40
2016,06,20,04,40,11.40
2016,06,20,04,41,11.40
2016,06,20,04,42,11.40
2016,06,20,04,43,11.30
2016,06,20,04,44,11.30
2016,06,20,04,45,11.30
2016,06,20,04,46,11.30
2016,06,20,04,47,11.30
2016,06,20,04,48,11.30
2016,06,20,04,49,11.30
2016,06,20,04,50,11.30
2016,06,20,04,51,11.30
2016,06,20,04,52,11.20
2016,06,20,04,53,11.20
2016,06,20,04,54,11.20
2016,06,20,04,55,11.20
2016,06,20,04,56,11.20
2016,06,20,04,57,11.20
2016,06,20,04,58,11.20
2016,06,20,04,59,11.20
2016,06,20,05,00,11.20
2016,06,20,05,01,11.20
2016,06,20,05,02,11.10
2016,06,20,05,03,11.10
2016,06,20,05,04,11.10
2016,06,20,05,05,11.10
2016,06,20,05,06,11.10
2016,06,20,05,07,11.10
2016,06,20,05,08,11.10
2016,06,20,05,09,11.10
2016,06,20,05,10,11.10
2016,06,20,05,11,11.10
2016,06,20,05,12,11.10
2016,06,20,05,13,11.10
2016,06,20,05,14,11.10
2016,06,20,05,15,11.00
2016,06,20,05,16,11.00
2016,06,20,05,17,11.00
2016,06,20,05,18,11.00
2016,06,20,05,19,11.00
2016,06,20,05,20,11.00
2016,06,20,05,21,10.90
2016,06,20,05,22,10.90
2016,06,20,05,23,10.90
2016,06,20,05,24,10.90
2016,06,20,05,25,10.90
2016,06,20,05,26,10.90
2016,06,20,05,27,10.90
2016,06,20,05,28,10.90
2016,06,20,05,29,10.90
2016,06,20,05,30,10.90
2016,06,20,05,31,10.90
2016,06,20,05,32,10.90
2016,06,20,05,33,10.90
2016,06,20,05,34,10.90
2016,06,20,05,35,10.90
2016,06,20,05,36,10.90
2016,06,20,05,37,10.90
2016,06,20,05,38,10.90
2016,06,20,05,39,10.90
2016,06,20,05,40,10.90
2016,06,20,05,41,10.90
2016,06,20,05,42,10.90
2016,06,20,05,43,10.90
2016,06,20,05,44,10.90
2016,06,20,05,45,10.90
2016,06,20,05,46,10.90
2016,06,20,05,47,10.90
2016,06,20,05,48,10.90
2016,06,20,05,49,10.90
2016,06,20,05,50,10.90
2016,06,20,05,51,10.90
2016,06,20,05,52,10.90
2016,06,20,05,53,10.90
2016,06,20,05,54,10.90
2016,06,20,05,55,11.00
2016,06,20,05,56,11.00
2016,06,20,05,57,11.00
2016,06,20,05,58,10.90
2016,06,20,05,59,10.90
2016,06,20,06,00,10.90
2016,06,20,06,01,10.90
2016,06,20,06,02,10.90
2016,06,20,06,03,10.90
2016,06,20,06,04,10.90
2016,06,20,06,05,10.90
2016,06,20,06,06,10.90
2016,06,20,06,07,10.90
2016,06,20,06,08,10.90
2016,06,20,06,09,10.90
2016,06,20,06,10,10.90
2016,06,20,06,11,10.90
2016,06,20,06,12,11.00
2016,06,20,06,13,11.00
2016,06,20,06,14,11.00
2016,06,20,06,15,11.00
2016,06,20,06,16,11.00
2016,06,20,06,17,11.00
2016,06,20,06,18,11.00
2016,06,20,06,19,11.00
2016,06,20,06,20,11.00
2016,06,20,06,21,11.00
2016,06,20,06,22,11.00
2016,06,20,06,23,11.00
2016,06,20,06,24,11.00
2016,06,20,06,25,11.00
2016,06,20,06,26,11.00
2016,06,20,06,27,11.00
2016,06,20,06,28,11.10
2016,06,20,06,29,11.10
2016,06,20,06,30,11.10
2016,06,20,06,31,11.10
2016,06,20,06,32,11.10
2016,06,20,06,33,11.10
2016,06,20,06,34,11.10
2016,06,20,06,35,11.10
2016,06,20,06,36,11.10
2016,06,20,06,37,11.20
2016,06,20,06,38,11.20
2016,06,20,06,39,11.20
2016,06,20,06,40,11.20
2016,06,20,06,41,11.20
2016,06,20,06,42,11.20
2016,06,20,06,43,11.20
2016,06,20,06,44,11.30
2016,06,20,06,45,11.30
2016,06,20,06,46,11.30
2016,06,20,06,47,11.30
2016,06,20,06,48,11.30
2016,06,20,06,49,11.30
2016,06,20,06,50,11.40
2016,06,20,06,51,11.40
2016,06,20,06,52,11.40
2016,06,20,06,53,11.40
2016,06,20,06,54,11.40
2016,06,20,06,55,11.40
2016,06,20,06,56,11.40
2016,06,20,06,57,11.50
2016,06,20,06,58,11.50
2016,06,20,06,59,11.50
2016,06,20,07,00,11.50
2016,06,20,07,01,11.50
2016,06,20,07,02,11.60
2016,06,20,07,03,11.60
2016,06,20,07,04,11.60
2016,06,20,07,05,11.60
2016,06,20,07,06,11.60
2016,06,20,07,07,11.60
2016,06,20,07,08,11.70
2016,06,20,07,09,11.70
2016,06,20,07,10,11.70
2016,06,20,07,11,11.70
2016,06,20,07,12,11.70
2016,06,20,07,13,11.80
2016,06,20,07,14,11.80
2016,06,20,07,15,11.80
2016,06,20,07,16,11.80
2016,06,20,07,17,11.80
2016,06,20,07,18,11.90
2016,06,20,07,19,11.90
2016,06,20,07,20,11.90
2016,06,20,07,21,12.00
2016,06,20,07,22,12.00
2016,06,20,07,23,12.10
2016,06,20,07,24,12.10
2016,06,20,07,25,12.20
2016,06,20,07,26,12.30
2016,06,20,07,27,12.30
2016,06,20,07,28,12.40
2016,06,20,07,29,12.50
2016,06,20,07,30,12.60
2016,06,20,07,31,12.70
2016,06,20,07,32,12.80
2016,06,20,07,33,12.90
2016,06,20,07,34,13.00
2016,06,20,07,35,13.20
2016,06,20,07,36,13.30
2016,06,20,07,37,13.40
2016,06,20,07,38,13.50
2016,06,20,07,39,13.60
2016,06,20,07,40,13.70
2016,06,20,07,41,13.80
2016,06,20,07,42,13.90
2016,06,20,07,43,14.00
2016,06,20,07,44,14.10
2016,06,20,07,45,14.20
2016,06,20,07,46,14.20
2016,06,20,07,47,14.30
2016,06,20,07,48,14.40
2016,06,20,07,49,14.50
2016,06,20,07,50,14.60
2016,06,20,07,51,14.70
2016,06,20,07,52,14.80
2016,06,20,07,53,14.80
2016,06,20,07,54,14.90
2016,06,20,07,55,14.80
2016,06,20,07,56,14.80
2016,06,20,07,57,14.80
2016,06,20,07,58,14.80
2016,06,20,07,59,14.80
2016,06,20,08,00,14.90
2016,06,20,08,01,14.90
2016,06,20,08,02,15.00
2016,06,20,08,03,15.00
2016,06,20,08,04,15.10
2016,06,20,08,05,15.10
2016,06,20,08,06,15.10
2016,06,20,08,07,15.20
2016,06,20,08,08,15.20
2016,06,20,08,09,15.20
2016,06,20,08,10,15.30
2016,06,20,08,11,15.30
2016,06,20,08,12,15.40
2016,06,20,08,13,15.40
2016,06,20,08,14,15.40
2016,06,20,08,15,15.40
2016,06,20,08,16,15.40
2016,06,20,08,17,15.40
2016,06,20,08,18,15.40
2016,06,20,08,19,15.30
2016,06,20,08,20,15.30
2016,06,20,08,21,15.30
2016,06,20,08,22,15.30
2016,06,20,08,23,15.30
2016,06,20,08,24,15.30
2016,06,20,08,25,15.30
2016,06,20,08,26,15.30
2016,06,20,08,27,15.30
2016,06,20,08,28,15.30
2016,06,20,08,29,15.30
2016,06,20,08,30,15.30
2016,06,20,08,31,15.20
2016,06,20,08,32,15.20
2016,06,20,08,33,15.20
2016,06,20,08,34,15.20
2016,06,20,08,35,15.10
2016,06,20,08,36,15.10
2016,06,20,08,37,15.00
2016,06,20,08,38,15.00
2016,06,20,08,39,14.90
2016,06,20,08,40,14.90
2016,06,20,08,41,14.90
2016,06,20,08,42,14.90
2016,06,20,08,43,14.90
2016,06,20,08,44,14.90
2016,06,20,08,45,14.80
2016,06,20,08,46,14.80
2016,06,20,08,47,14.80
2016,06,20,08,48,14.80
2016,06,20,08,49,14.80
2016,06,20,08,50,14.90
2016,06,20,08,51,14.90
2016,06,20,08,52,14.90
2016,06,20,08,53,14.90
2016,06,20,08,54,14.90
2016,06,20,08,55,14.90
2016,06,20,08,56,14.90
2016,06,20,08,57,15.00
2016,06,20,08,58,15.00
2016,06,20,08,59,15.10
2016,06,20,09,00,15.10
2016,06,20,09,01,15.10
2016,06,20,09,02,15.10
2016,06,20,09,03,15.20
2016,06,20,09,04,15.20
2016,06,20,09,05,15.20
2016,06,20,09,06,15.30
2016,06,20,09,07,15.30
2016,06,20,09,08,15.30
2016,06,20,09,09,15.40
2016,06,20,09,10,15.40
2016,06,20,09,11,15.40
2016,06,20,09,12,15.40
2016,06,20,09,13,15.40
2016,06,20,09,14,15.50
2016,06,20,09,15,15.50
2016,06,20,09,16,15.60
2016,06,20,09,17,15.60
2016,06,20,09,18,15.60
2016,06,20,09,19,15.70
2016,06,20,09,20,15.70
2016,06,20,09,21,15.80
2016,06,20,09,22,15.80
2016,06,20,09,23,15.90
2016,06,20,09,24,15.90
2016,06,20,09,25,16.00
2016,06,20,09,26,16.10
2016,06,20,09,27,16.20
2016,06,20,09,28,16.30
2016,06,20,09,29,16.30
2016,06,20,09,30,16.40
2016,06,20,09,31,16.50
2016,06,20,09,32,16.50
2016,06,20,09,33,16.60
2016,06,20,09,34,16.70
2016,06,20,09,35,16.70
2016,06,20,09,36,16.80
2016,06,20,09,37,16.80
2016,06,20,09,38,16.90
2016,06,20,09,39,16.90
2016,06,20,09,40,16.90
2016,06,20,09,41,17.00
2016,06,20,09,42,17.10
2016,06,20,09,43,17.10
2016,06,20,09,44,17.10
2016,06,20,09,45,17.20
2016,06,20,09,46,17.30
2016,06,20,09,47,17.30
2016,06,20,09,48,17.40
2016,06,20,09,49,17.30
2016,06,20,09,50,17.30
2016,06,20,09,51,17.30
2016,06,20,09,52,17.30
2016,06,20,09,53,17.30
2016,06,20,09,54,17.30
2016,06,20,09,55,17.30
2016,06,20,09,56,17.30
2016,06,20,09,57,17.20
2016,06,20,09,58,17.20
2016,06,20,09,59,17.20
2016,06,20,10,00,17.20
2016,06,20,10,01,17.10
2016,06,20,10,02,17.10
2016,06,20,10,03,17.10
2016,06,20,10,04,17.10
2016,06,20,10,05,17.20
2016,06,20,10,06,17.30
2016,06,20,10,07,17.40
2016,06,20,10,08,17.40
2016,06,20,10,09,17.40
2016,06,20,10,10,17.40
2016,06,20,10,11,17.40
2016,06,20,10,12,17.40
2016,06,20,10,13,17.40
2016,06,20,10,14,17.40
2016,06,20,10,15,17.40
2016,06,20,10,16,17.40
2016,06,20,10,17,17.40
2016,06,20,10,18,17.40
2016,06,20,10,19,17.40
2016,06,20,10,20,17.30
2016,06,20,10,21,17.30
2016,06,20,10,22,17.30
2016,06,20,10,23,17.20
2016,06,20,10,24,17.30
2016,06,20,10,25,17.30
2016,06,20,10,26,17.30
2016,06,20,10,27,17.30
2016,06,20,10,28,17.30
2016,06,20,10,29,17.30
2016,06,20,10,30,17.30
2016,06,20,10,31,17.30
2016,06,20,10,32,17.30
2016,06,20,10,33,17.30
2016,06,20,10,34,17.30
2016,06,20,10,35,17.30
2016,06,20,10,36,17.30
2016,06,20,10,37,17.20
2016,06,20,10,38,17.20
2016,06,20,10,39,17.20
2016,06,20,10,40,17.20
2016,06,20,10,41,17.20
2016,06,20,10,42,17.20
2016,06,20,10,43,17.20
2016,06,20,10,44,17.20
2016,06,20,10,45,17.20
2016,06,20,10,46,17.30
2016,06,20,10,47,17.30
2016,06,20,10,48,17.30
2016,06,20,10,49,17.30
2016,06,20,10,50,17.30
2016,06,20,10,51,17.30
2016,06,20,10,52,17.30
2016,06,20,10,53,17.20
2016,06,20,10,54,17.20
2016,06,20,10,55,17.20
2016,06,20,10,56,17.20
2016,06,20,10,57,17.20
2016,06,20,10,58,17.20
2016,06,20,10,59,17.20
2016,06,20,11,00,17.30
2016,06,20,11,01,17.40
2016,06,20,11,02,17.50
2016,06,20,11,03,17.60
2016,06,20,11,04,17.60
2016,06,20,11,05,17.60
2016,06,20,11,06,17.60
2016,06,20,11,07,17.50
2016,06,20,11,08,17.40
2016,06,20,11,09,17.40
2016,06,20,11,10,17.40
2016,06,20,11,11,17.30
2016,06,20,11,12,17.40
2016,06,20,11,13,17.40
2016,06,20,11,14,17.40
2016,06,20,11,15,17.40
2016,06,20,11,16,17.30
2016,06,20,11,17,17.30
2016,06,20,11,18,17.30
2016,06,20,11,19,17.30
2016,06,20,11,20,17.40
2016,06,20,11,21,17.40
2016,06,20,11,22,17.50
2016,06,20,11,23,17.50
2016,06,20,11,24,17.50
2016,06,20,11,25,17.40
2016,06,20,11,26,17.40
2016,06,20,11,27,17.40
2016,06,20,11,28,17.30
2016,06,20,11,29,17.40
2016,06,20,11,30,17.50
2016,06,20,11,31,17.60
2016,06,20,11,32,17.70
2016,06,20,11,33,17.80
2016,06,20,11,34,17.90
2016,06,20,11,35,17.90
2016,06,20,11,36,18.00
2016,06,20,11,37,18.00
2016,06,20,11,38,18.00
2016,06,20,11,39,18.00
2016,06,20,11,40,17.90
2016,06,20,11,41,17.90
2016,06,20,11,42,17.80
2016,06,20,11,43,17.80
2016,06,20,11,44,17.70
2016,06,20,11,45,17.70
2016,06,20,11,46,17.80
2016,06,20,11,47,17.80
2016,06,20,11,48,17.80
2016,06,20,11,49,17.90
2016,06,20,11,50,18.00
2016,06,20,11,51,18.00
2016,06,20,11,52,18.00
2016,06,20,11,53,18.00
2016,06,20,11,54,18.00
2016,06,20,11,55,18.00
2016,06,20,11,56,18.10
2016,06,20,11,57,18.10
2016,06,20,11,58,18.20
2016,06,20,11,59,18.20
2016,06,20,12,00,18.20
2016,06,20,12,01,18.20
2016,06,20,12,02,18.20
2016,06,20,12,03,18.20
2016,06,20,12,04,18.30
2016,06,20,12,05,18.40
2016,06,20,12,06,18.40
2016,06,20,12,07,18.40
2016,06,20,12,08,18.50
2016,06,20,12,09,18.50
2016,06,20,12,10,18.40
2016,06,20,12,11,18.50
2016,06,20,12,12,18.40
2016,06,20,12,13,18.40
2016,06,20,12,14,18.40
2016,06,20,12,15,18.30
2016,06,20,12,16,18.20
2016,06,20,12,17,18.10
2016,06,20,12,18,18.10
2016,06,20,12,19,18.10
2016,06,20,12,20,18.00
2016,06,20,12,21,18.00
2016,06,20,12,22,18.00
2016,06,20,12,23,18.00
2016,06,20,12,24,18.00
2016,06,20,12,25,18.10
2016,06,20,12,26,18.10
2016,06,20,12,27,18.20
2016,06,20,12,28,18.30
2016,06,20,12,29,18.30
2016,06,20,12,30,18.40
2016,06,20,12,31,18.40
2016,06,20,12,32,18.40
2016,06,20,12,33,18.30
2016,06,20,12,34,18.30
2016,06,20,12,35,18.30
2016,06,20,12,36,18.30
2016,06,20,12,37,18.30
2016,06,20,12,38,18.30
2016,06,20,12,39,18.30
2016,06,20,12,40,18.30
2016,06,20,12,41,18.30
2016,06,20,12,42,18.30
2016,06,20,12,43,18.30
2016,06,20,12,44,18.20
2016,06,20,12,45,18.20
2016,06,20,12,46,18.30
2016,06,20,12,47,18.30
2016,06,20,12,48,18.40
2016,06,20,12,49,18.50
2016,06,20,12,50,18.60
2016,06,20,12,51,18.70
2016,06,20,12,52,18.70
2016,06,20,12,53,18.70
2016,06,20,12,54,18.70
2016,06,20,12,55,18.70
2016,06,20,12,56,18.80
2016,06,20,12,57,18.80
2016,06,20,12,58,18.80
2016,06,20,12,59,18.80
2016,06,20,13,00,18.90
2016,06,20,13,01,18.90
2016,06,20,13,02,18.90
2016,06,20,13,03,19.00
2016,06,20,13,04,19.00
2016,06,20,13,05,19.10
2016,06,20,13,06,19.10
2016,06,20,13,07,19.20
2016,06,20,13,08,19.30
2016,06,20,13,09,19.30
2016,06,20,13,10,19.40
2016,06,20,13,11,19.40
2016,06,20,13,12,19.40
2016,06,20,13,13,19.50
2016,06,20,13,14,19.50
2016,06,20,13,15,19.50
2016,06,20,13,16,19.50
2016,06,20,13,17,19.40
2016,06,20,13,18,19.50
2016,06,20,13,19,19.50
2016,06,20,13,20,19.50
2016,06,20,13,21,19.40
2016,06,20,13,22,19.30
2016,06,20,13,23,19.30
2016,06,20,13,24,19.20
2016,06,20,13,25,19.20
2016,06,20,13,26,19.10
2016,06,20,13,27,19.10
2016,06,20,13,28,19.10
2016,06,20,13,29,19.10
2016,06,20,13,30,19.00
2016,06,20,13,31,19.00
2016,06,20,13,32,19.00
2016,06,20,13,33,19.10
2016,06,20,13,34,19.10
2016,06,20,13,35,19.20
2016,06,20,13,36,19.20
2016,06,20,13,37,19.30
2016,06,20,13,38,19.30
2016,06,20,13,39,19.40
2016,06,20,13,40,19.40
2016,06,20,13,41,19.50
2016,06,20,13,42,19.50
2016,06,20,13,43,19.50
2016,06,20,13,44,19.40
2016,06,20,13,45,19.40
2016,06,20,13,46,19.40
2016,06,20,13,47,19.40
2016,06,20,13,48,19.40
2016,06,20,13,49,19.40
2016,06,20,13,50,19.50
2016,06,20,13,51,19.60
2016,06,20,13,52,19.50
2016,06,20,13,53,19.50
2016,06,20,13,54,19.40
2016,06,20,13,55,19.40
2016,06,20,13,56,19.40
2016,06,20,13,57,19.30
2016,06,20,13,58,19.30
2016,06,20,13,59,19.30
2016,06,20,14,00,19.30
2016,06,20,14,01,19.30
2016,06,20,14,02,19.30
2016,06,20,14,03,19.30
2016,06,20,14,04,19.30
2016,06,20,14,05,19.30
2016,06,20,14,06,19.30
2016,06,20,14,07,19.20
2016,06,20,14,08,19.10
2016,06,20,14,09,19.10
2016,06,20,14,10,19.10
2016,06,20,14,11,19.10
2016,06,20,14,12,19.10
2016,06,20,14,13,19.00
2016,06,20,14,14,19.00
2016,06,20,14,15,18.90
2016,06,20,14,16,18.90
2016,06,20,14,17,18.90
2016,06,20,14,18,18.90
2016,06,20,14,19,18.90
2016,06,20,14,20,19.00
2016,06,20,14,21,19.00
2016,06,20,14,22,19.10
2016,06,20,14,23,19.10
2016,06,20,14,24,19.10
2016,06,20,14,25,19.10
2016,06,20,14,26,19.10
2016,06,20,14,27,19.20
2016,06,20,14,28,19.20
2016,06,20,14,29,19.10
2016,06,20,14,30,19.00
2016,06,20,14,31,18.90
2016,06,20,14,32,18.80
2016,06,20,14,33,18.80
2016,06,20,14,34,18.70
2016,06,20,14,35,18.70
2016,06,20,14,36,18.60
2016,06,20,14,37,18.60
2016,06,20,14,38,18.60
2016,06,20,14,39,18.60
2016,06,20,14,40,18.60
2016,06,20,14,41,18.60
2016,06,20,14,42,18.60
2016,06,20,14,43,18.60
2016,06,20,14,44,18.60
2016,06,20,14,45,18.70
2016,06,20,14,46,18.70
2016,06,20,14,47,18.80
2016,06,20,14,48,18.80
2016,06,20,14,49,18.90
2016,06,20,14,50,19.10
2016,06,20,14,51,19.20
2016,06,20,14,52,19.20
2016,06,20,14,53,19.30
2016,06,20,14,54,19.40
2016,06,20,14,55,19.50
2016,06,20,14,56,19.50
2016,06,20,14,57,19.60
2016,06,20,14,58,19.60
2016,06,20,14,59,19.60
2016,06,20,15,00,19.60
2016,06,20,15,01,19.80
2016,06,20,15,02,19.90
2016,06,20,15,03,20.00
2016,06,20,15,04,20.00
2016,06,20,15,05,20.00
2016,06,20,15,06,20.10
2016,06,20,15,07,20.10
2016,06,20,15,08,20.20
2016,06,20,15,09,20.20
2016,06,20,15,10,20.30
2016,06,20,15,11,20.30
2016,06,20,15,12,20.30
2016,06,20,15,13,20.20
2016,06,20,15,14,20.10
2016,06,20,15,15,20.00
2016,06,20,15,16,19.90
2016,06,20,15,17,19.80
2016,06,20,15,18,19.80
2016,06,20,15,19,19.70
2016,06,20,15,20,19.70
2016,06,20,15,21,19.70
2016,06,20,15,22,19.70
2016,06,20,15,23,19.70
2016,06,20,15,24,19.60
2016,06,20,15,25,19.60
2016,06,20,15,26,19.60
2016,06,20,15,27,19.70
2016,06,20,15,28,19.70
2016,06,20,15,29,19.60
2016,06,20,15,30,19.50
2016,06,20,15,31,19.40
2016,06,20,15,32,19.30
2016,06,20,15,33,19.30
2016,06,20,15,34,19.20
2016,06,20,15,35,19.20
2016,06,20,15,36,19.30
2016,06,20,15,37,19.30
2016,06,20,15,38,19.30
2016,06,20,15,39,19.30
2016,06,20,15,40,19.30
2016,06,20,15,41,19.30
2016,06,20,15,42,19.20
2016,06,20,15,43,19.20
2016,06,20,15,44,19.20
2016,06,20,15,45,19.30
2016,06,20,15,46,19.30
2016,06,20,15,47,19.40
2016,06,20,15,48,19.50
2016,06,20,15,49,19.60
2016,06,20,15,50,19.60
2016,06,20,15,51,19.60
2016,06,20,15,52,19.70
2016,06,20,15,53,19.70
2016,06,20,15,54,19.70
2016,06,20,15,55,19.80
2016,06,20,15,56,19.80
2016,06,20,15,57,19.80
2016,06,20,15,58,19.80
2016,06,20,15,59,19.90
2016,06,20,16,00,19.80
2016,06,20,16,01,19.80
2016,06,20,16,02,19.80
2016,06,20,16,03,19.90
2016,06,20,16,04,20.00
2016,06,20,16,05,20.10
2016,06,20,16,06,20.20
2016,06,20,16,07,20.20
2016,06,20,16,08,20.10
2016,06,20,16,09,20.00
2016,06,20,16,10,19.90
2016,06,20,16,11,19.90
2016,06,20,16,12,19.90
2016,06,20,16,13,20.00
2016,06,20,16,14,20.00
2016,06,20,16,15,20.00
2016,06,20,16,16,19.90
2016,06,20,16,17,19.90
2016,06,20,16,18,19.90
2016,06,20,16,19,19.90
2016,06,20,16,20,19.90
2016,06,20,16,21,19.90
2016,06,20,16,22,19.80
2016,06,20,16,23,19.80
2016,06,20,16,24,19.80
2016,06,20,16,25,19.90
2016,06,20,16,26,19.90
2016,06,20,16,27,20.00
2016,06,20,16,28,20.20
2016,06,20,16,29,20.30
2016,06,20,16,30,20.40
2016,06,20,16,31,20.50
2016,06,20,16,32,20.50
2016,06,20,16,33,20.60
2016,06,20,16,34,20.50
2016,06,20,16,35,20.40
2016,06,20,16,36,20.40
2016,06,20,16,37,20.30
2016,06,20,16,38,20.30
2016,06,20,16,39,20.30
2016,06,20,16,40,20.30
2016,06,20,16,41,20.40
2016,06,20,16,42,20.50
2016,06,20,16,43,20.60
2016,06,20,16,44,20.70
2016,06,20,16,45,20.80
2016,06,20,16,46,20.80
2016,06,20,16,47,20.90
2016,06,20,16,48,21.00
2016,06,20,16,49,21.10
2016,06,20,16,50,21.10
2016,06,20,16,51,21.20
2016,06,20,16,52,21.30
2016,06,20,16,53,21.30
2016,06,20,16,54,21.40
2016,06,20,16,55,21.50
2016,06,20,16,56,21.50
2016,06,20,16,57,21.40
2016,06,20,16,58,21.30
2016,06,20,16,59,21.20
2016,06,20,17,00,21.20
2016,06,20,17,01,21.10
2016,06,20,17,02,21.10
2016,06,20,17,03,21.00
2016,06,20,17,04,20.90
2016,06,20,17,05,20.80
2016,06,20,17,06,20.60
2016,06,20,17,07,20.50
2016,06,20,17,08,20.40
2016,06,20,17,09,20.30
2016,06,20,17,10,20.30
2016,06,20,17,11,20.20
2016,06,20,17,12,20.10
2016,06,20,17,13,20.00
2016,06,20,17,14,20.00
2016,06,20,17,15,20.00
2016,06,20,17,16,19.90
2016,06,20,17,17,19.90
2016,06,20,17,18,19.90
2016,06,20,17,19,19.90